Location: Bukovany
(49.8234°N, 14.6297°E)
Time: 07:01:06
(UTC+00:00)

Spot 4 Rocket - Pass Details

Date: 17 November 2025
Orbit: 769 x 773 km, 98.8° (Epoch: 10 December)

Event Time Altitude Azimuth Distance (km) Brightness Sun altitude
Rises 17:24:57 0° 168° (SSE) 3,228 7.2 -20.6°
Reaches altitude 10° 17:27:15 10° 170° (S) 2,306 6.4 -21.0°
Maximum altitude 17:32:19 75° 256° (WSW) 803 4.1 -21.8°
Drops below altitude 10° 17:37:27 10° 342° (NNW) 2,324 6.7 -22.6°
Sets 17:39:47 0° 344° (NNW) 3,255 7.4 -23.0°
